Airfield :
LOGIN :

Register | Disclaimer

   EN    FR    IT 

 










Legend :    VFR   Marginal VFR   IFR   Intensive IFR   Very Intensive IFR
Visi :
Ceiling :
>= 8 km
>= 3000ft
5 to 8 km
1000 to 3000 ft
1500m to 5 km
500 to 1000 ft
800 to 1500m
200 to 500 ft
< 800m
< 200 ft
Symbols :   Thunderstorms  Fog  Heavy snow  Heavy precipitations  Wind > 20 kt
SIGMETs :     Misc.  Thunderstorms  Icing  Turbulence  Mountain Waves  Volcanic Ashes







- Airport Elevation : 239 ft
- IATA code : VRN


LIPX - Villafranca Int. Verona

CURRENT METAR :
  • 202350Z 24005KT 9999 SCT050 04/02 Q1011

EXPIRED METARs :
  • 202320Z 26003KT 9999 SCT050 04/03 Q1011
  • 202250Z VRB04KT 9999 SCT060 04/03 Q1011
  • 202220Z 22003KT 190V280 9999 SCT060 04/03 Q1011
  • 202150Z 28004KT 8000 NSC 03/03 Q1011
  • 202120Z VRB02KT 8000 NSC 04/03 Q1011

TAF TAF LIPX
Valid from the 21 at 00:00 until the 21 at 09:00 UTC


202300Z 2100/2109 VRB05KT 8000 SCT070
TEMPO 2103/2107 3000 BR
No reported NOTAMs for that airfield.



MET'MAP, your aeronautical weather chart ! - Copyright ORBIFLY December 2007 - Disclaimer

ORBIFLY MET'MAP TEAM :

Programming & Development : Alexandra Zaïnal
Concept & Development : Baudouin d'Aumeries
Co-Development & Prog : Marc-Olivier Méhu
Technical & hardware support : Manuel Goepfert

Contact : metmap@orbifly.com




SOURCES & CREDITS :

   NOAA